Date String (YYYY-MM-DD hh:mm:ss) UTC,Instrument flags,absolute air pressure of the measurement (hPa),sample flow rate (lpm),inlet stack bypass flow (lpm),air temperature of the measurement (°C),ambient temperature measured by the external sensor (°C),aerosol sample conditioner tube jacket temperature (°C),OPC LED temperature (°C),internal box temperature (°C),relative humidity of the measurement (%),span deviation,mass concentration of particles derived from Lorenz-Mie calculation of OPC scattering (μg/m³),mass concentration of particles derived from Lorenz-Mie calculation of OPC scattering (μg/m³),mass concentration of particles derived from Lorenz-Mie calculation of OPC scattering (μg/m³)
DateTimeUTC,F1_M11,P_M11,Q1_M11,Q2_M11,T1_M11,T2_M11,T3_M11,T4_M11,T5_M11,U1_M11,ZSPAN_M11,X0_M11,X2_M11,X1_M11
2024-06-06 01:00:00,SystemResetWarning,0827.4,4.99,000.00,028.5,026.0,000.0,037.2,029.5,017.5,0000.0,0005.63,0001.54,0000.85
2024-06-06 01:01:00,SystemResetWarning,0827.4,5.00,000.00,028.5,026.5,000.0,037.1,029.8,017.3,0000.0,0005.10,0001.47,0000.85
2024-06-06 01:02:00,SystemResetWarning,0827.4,5.01,000.00,028.6,027.0,000.0,037.1,030.1,017.0,0000.0,0004.85,0001.45,0000.84
2024-06-06 01:03:00,SystemResetWarning,0827.4,4.99,000.00,028.6,027.4,000.0,037.0,030.3,016.9,0000.0,0004.98,0001.49,0000.85
2024-06-06 01:04:00,SystemResetWarning,0827.4,4.99,000.00,028.7,027.8,000.0,037.0,030.5,016.9,0000.0,0005.04,0001.52,0000.84
2024-06-06 01:05:00,SystemResetWarning,0827.4,5.00,000.00,028.8,028.2,000.0,037.0,030.7,016.7,0000.0,0004.77,0001.51,0000.84
2024-06-06 01:06:00,SystemResetWarning,0827.6,5.00,000.00,028.9,028.4,000.0,037.1,030.8,016.7,0000.0,0005.19,0001.54,0000.83
2024-06-06 01:07:00,SystemResetWarning,0827.6,5.00,000.00,029.0,028.7,000.0,037.1,030.9,016.5,0000.0,0004.95,0001.52,0000.82
2024-06-06 01:08:00,SystemResetWarning,0827.5,4.99,000.00,029.1,028.9,000.0,037.1,031.0,016.3,0000.0,0005.18,0001.53,0000.82
2024-06-06 01:09:00,SystemResetWarning,0827.6,5.00,000.00,029.2,029.1,000.0,037.2,031.1,016.5,0000.0,0005.14,0001.47,0000.82
2024-06-06 01:10:00,SystemResetWarning,0827.6,4.98,000.00,029.2,028.2,000.0,037.3,030.7,016.3,0000.0,0004.54,0001.50,0000.82
2024-06-06 01:11:00,SystemResetWarning,0827.6,5.00,000.00,028.8,025.7,000.0,037.3,029.5,016.5,0000.0,0004.45,0001.53,0000.82
2024-06-06 01:12:00,SystemResetWarning,0827.5,5.01,000.00,028.5,025.4,000.0,037.3,029.3,016.8,0000.0,0004.67,0001.56,0000.82
2024-06-06 01:13:00,SystemResetWarning,0827.5,5.01,000.00,028.5,026.0,000.0,037.2,029.6,016.9,0000.0,0004.79,0001.60,0000.82
2024-06-06 01:14:00,SystemResetWarning,0827.5,5.00,000.00,028.5,026.5,000.0,037.1,029.9,016.7,0000.0,0004.68,0001.60,0000.83
2024-06-06 01:15:00,SystemResetWarning,0827.7,5.01,000.00,028.6,027.0,000.0,037.0,030.2,016.5,0000.0,0004.66,0001.60,0000.83
2024-06-06 01:16:00,SystemResetWarning,0827.7,5.00,000.00,028.6,027.5,000.0,037.0,030.4,016.7,0000.0,0004.88,0001.65,0000.84
2024-06-06 01:17:00,SystemResetWarning,0827.7,5.00,000.00,028.7,027.9,000.0,037.0,030.5,017.0,0000.0,0004.94,0001.63,0000.84
2024-06-06 01:18:00,SystemResetWarning,0827.7,4.99,000.00,028.8,028.2,000.0,037.0,030.7,017.1,0000.0,0005.00,0001.62,0000.85
2024-06-06 01:19:00,SystemResetWarning,0827.7,5.00,000.00,028.9,028.4,000.0,037.1,030.8,016.8,0000.0,0004.60,0001.58,0000.86
2024-06-06 01:20:00,SystemResetWarning,0827.7,4.99,000.00,029.0,028.7,000.0,037.1,030.9,016.8,0000.0,0004.27,0001.59,0000.86
2024-06-06 01:21:00,SystemResetWarning,0827.8,5.00,000.00,029.1,028.9,000.0,037.2,031.0,016.4,0000.0,0004.29,0001.61,0000.86
2024-06-06 01:22:00,SystemResetWarning,0827.8,5.00,000.00,029.2,029.0,000.0,037.2,031.1,016.6,0000.0,0004.40,0001.65,0000.86
2024-06-06 01:23:00,SystemResetWarning,0827.7,5.00,000.00,029.3,028.8,000.0,037.3,031.0,016.7,0000.0,0004.38,0001.71,0000.87
2024-06-06 01:24:00,SystemResetWarning,0827.7,4.99,000.00,029.0,026.5,000.0,037.3,029.9,016.8,0000.0,0004.35,0001.70,0000.86
2024-06-06 01:25:00,SystemResetWarning,0827.7,5.01,000.00,028.6,025.3,000.0,037.3,029.3,017.4,0000.0,0004.22,0001.66,0000.86
2024-06-06 01:26:00,SystemResetWarning,0827.7,5.01,000.00,028.5,025.9,000.0,037.3,029.5,017.1,0000.0,0004.07,0001.64,0000.86
2024-06-06 01:27:00,SystemResetWarning,0827.7,5.00,000.00,028.5,026.4,000.0,037.1,029.8,017.0,0000.0,0003.99,0001.62,0000.86
2024-06-06 01:28:00,SystemResetWarning,0827.7,5.00,000.00,028.6,026.9,000.0,037.1,030.1,017.0,0000.0,0004.44,0001.61,0000.86
2024-06-06 01:29:00,SystemResetWarning,0827.8,5.00,000.00,028.6,027.3,000.0,037.1,030.3,017.4,0000.0,0004.52,0001.63,0000.86
2024-06-06 01:30:00,SystemResetWarning,0827.8,5.00,000.00,028.7,027.7,000.0,037.1,030.5,017.3,0000.0,0004.89,0001.62,0000.86
2024-06-06 01:31:00,SystemResetWarning,0827.8,4.99,000.00,028.8,028.1,000.0,037.1,030.7,017.1,0000.0,0005.28,0001.62,0000.85
2024-06-06 01:32:00,SystemResetWarning,0827.8,4.99,000.00,028.9,028.3,000.0,037.1,030.8,016.7,0000.0,0005.27,0001.58,0000.85
2024-06-06 01:33:00,SystemResetWarning,0827.8,5.00,000.00,029.0,028.6,000.0,037.1,030.9,016.7,0000.0,0006.27,0001.54,0000.85
2024-06-06 01:34:00,SystemResetWarning,0827.9,5.00,000.00,029.1,028.8,000.0,037.2,031.0,016.8,0000.0,0007.21,0001.52,0000.84
2024-06-06 01:35:00,SystemResetWarning,0827.8,5.01,000.00,029.2,029.0,000.0,037.2,031.1,016.7,0000.0,0007.78,0001.49,0000.85
2024-06-06 01:36:00,SystemResetWarning,0827.9,4.99,000.00,029.2,028.4,000.0,037.3,030.8,016.9,0000.0,0007.87,0001.52,0000.86
2024-06-06 01:37:00,SystemResetWarning,0827.7,4.99,000.00,028.9,026.0,000.0,037.3,029.7,017.1,0000.0,0008.15,0001.52,0000.86
2024-06-06 01:38:00,SystemResetWarning,0827.7,5.02,000.00,028.5,025.2,000.0,037.3,029.3,017.4,0000.0,0008.52,0001.51,0000.85
2024-06-06 01:39:00,SystemResetWarning,0827.8,4.99,000.00,028.5,025.9,000.0,037.2,029.5,017.5,0000.0,0008.13,0001.51,0000.84
2024-06-06 01:40:00,SystemResetWarning,0827.8,5.00,000.00,028.5,026.4,000.0,037.1,029.8,017.7,0000.0,0007.95,0001.50,0000.84
2024-06-06 01:41:00,SystemResetWarning,0827.8,5.00,000.00,028.5,026.9,000.0,037.1,030.1,017.8,0000.0,0008.10,0001.51,0000.84
2024-06-06 01:42:00,SystemResetWarning,0827.9,4.99,000.00,028.6,027.3,000.0,037.0,030.3,017.8,0000.0,0008.01,0001.50,0000.85
2024-06-06 01:43:00,SystemResetWarning,0827.8,5.00,000.00,028.7,027.7,000.0,037.0,030.5,017.5,0000.0,0007.94,0001.50,0000.86
2024-06-06 01:44:00,SystemResetWarning,0827.9,5.00,000.00,028.8,028.1,000.0,037.0,030.6,017.2,0000.0,0007.49,0001.50,0000.85
2024-06-06 01:45:00,SystemResetWarning,0828.0,5.00,000.00,028.9,028.4,000.0,037.1,030.7,017.1,0000.0,0007.37,0001.48,0000.86
2024-06-06 01:46:00,SystemResetWarning,0828.0,5.00,000.00,029.0,028.6,000.0,037.1,030.9,017.2,0000.0,0006.97,0001.49,0000.86
2024-06-06 01:47:00,SystemResetWarning,0828.1,5.00,000.00,029.1,028.8,000.0,037.1,031.0,017.0,0000.0,0007.82,0001.58,0000.85
2024-06-06 01:48:00,SystemResetWarning,0828.0,5.00,000.00,029.2,029.0,000.0,037.2,031.1,017.1,0000.0,0007.57,0001.58,0000.85
2024-06-06 01:49:00,SystemResetWarning,0828.0,5.00,000.00,029.3,029.1,000.0,037.2,031.2,017.0,0000.0,0007.19,0001.56,0000.87
2024-06-06 01:50:00,SystemResetWarning,0827.9,4.98,000.00,029.2,028.2,000.0,037.3,030.7,017.0,0000.0,0007.06,0001.58,0000.88
2024-06-06 01:51:00,SystemResetWarning,0827.8,5.00,000.00,028.9,025.7,000.0,037.3,029.6,017.1,0000.0,0007.07,0001.61,0000.89
2024-06-06 01:52:00,SystemResetWarning,0827.8,5.01,000.00,028.5,025.3,000.0,037.3,029.3,017.6,0000.0,0006.77,0001.63,0000.89
2024-06-06 01:53:00,SystemResetWarning,0827.8,5.00,000.00,028.5,025.9,000.0,037.2,029.6,017.7,0000.0,0006.35,0001.65,0000.90
2024-06-06 01:54:00,SystemResetWarning,0827.8,4.99,000.00,028.5,026.4,000.0,037.1,029.9,017.7,0000.0,0006.36,0001.65,0000.90
2024-06-06 01:55:00,SystemResetWarning,0827.9,5.00,000.00,028.6,026.9,000.0,037.1,030.1,017.7,0000.0,0006.36,0001.66,0000.91
2024-06-06 01:56:00,SystemResetWarning,0828.0,5.01,000.00,028.6,027.4,000.0,037.0,030.3,017.6,0000.0,0006.29,0001.67,0000.91
2024-06-06 01:57:00,SystemResetWarning,0828.1,5.01,000.00,028.7,027.7,000.0,037.0,030.5,017.7,0000.0,0006.11,0001.68,0000.91
2024-06-06 01:58:00,SystemResetWarning,0828.0,5.00,000.00,028.8,028.0,000.0,037.0,030.6,017.6,0000.0,0004.87,0001.63,0000.91
2024-06-06 01:59:00,SystemResetWarning,0828.1,5.00,000.00,028.9,028.3,000.0,037.1,030.7,017.4,0000.0,0005.22,0001.61,0000.91
